クリステンセン彗星

C/2006 W3 ( Christensen )

English version
Home page
Updated on February 7, 2017

---------------------------------------------------------------------

・ プロフィール

発見日 2006年11月18日
発見光度 18.1等
発見者 E. J. Christensen (Catalina Sky Survey)

・ 写真集

・ 軌道要素

Epoch 2009 June 18.0 TT = JDT 2455000.5
T 2009 July 6.65737 TT                                  MPC
q   3.1262057            (2000.0)            P               Q
z  -0.0000166      Peri.  133.51861     +0.67604869     -0.09047495
 +/-0.0000000      Node   113.57271     -0.64879513     -0.54356599
e   1.0000520      Incl.  127.07375     +0.34931798     -0.83447606
From 5361 observations 2006 Oct. 29-2011 Sept. 24, mean residual 0".5.

・ 星図

・ 光度変化

        m1 = -2.5 + 5 logΔ + 17.5 log r

---------------------------------------------------------------------

軌道要素はM.P.E.C. 2013-B90に掲載されたものです。
星図は StellaNavigator Ver.2.0 for Windows (アストロアーツ 編著 / アスキー出版局刊) で作成したものです。
光度グラフはComet for Windowsで作成したものです。

---------------------------------------------------------------------

Copyright(C) Seiichi Yoshida (comet@aerith.net). All rights reserved.